Regional Weather Roundup
Issued by NWS

Home | Current Version | Previous Version | Graphics & Text | Print | Product List | Glossary On
Versions: 1 2 3 4 5 6 7 8 9 10 11 12 13 14 15 16 17 18 19 20 21 22 23 24 25 26 27 28 29 30 31 32 33 34 35 36 37 38 39 40 41 42 43 44 45 46 47 48 49 50
000
ASUS43 KOAX 301202
RWRNE

WEATHER ROUNDUP FOR NEBRASKA
NATIONAL WEATHER SERVICE OMAHA NE
700 AM CDT FRI SEP 30 2016

NOTES: SATELLITE DATA IS BEING USED TO AUGMENT CLOUD COVER ABOVE
       12000 FEET.
       "FAIR" INDICATES FEW OR NO CLOUDS BELOW 12,000 FEET WITH NO
       SIGNIFICANT WEATHER AND/OR OBSTRUCTIONS TO VISIBILITY.

  * THESE STATIONS DO NOT REPORT WEATHER SUCH AS RAIN...SNOW OR FOG.

NEZ001>004-019>022-054>056-301300-
NEBRASKA PANHANDLE

CITY           SKY/WX    TMP DP  RH WIND       PRES   REMARKS
SCOTTSBLUFF    CLOUDY    46  40  79 SE9       30.19F
6HR MIN TEMP:  46; 6HR MAX TEMP:  56;

ALLIANCE       CLOUDY    44  40  85 S6        30.20S
6HR MIN TEMP:  44; 6HR MAX TEMP:  54;

CHADRON        PTCLDY    54  40  59 S12       30.15F
6HR MIN TEMP:  53; 6HR MAX TEMP:  62;

KIMBALL        CLOUDY    45  41  87 SW3       30.22F
SIDNEY         CLOUDY    43  37  79 SE5       30.22S
6HR MIN TEMP:  43; 6HR MAX TEMP:  53;

$$

NEZ057>060-069>072-079>082-301300-
SOUTHWEST NEBRASKA

CITY           SKY/WX    TMP DP  RH WIND       PRES   REMARKS
NORTH PLATTE   CLOUDY    43  41  93 E7        30.27F
6HR MIN TEMP:  41; 6HR MAX TEMP:  45;

IMPERIAL       CLEAR     44  41  89 SE8       30.24S
6HR MIN TEMP:  44; 6HR MAX TEMP:  52;

LEXINGTON      CLOUDY    40  39  93 CALM      30.29S
MCCOOK         CLEAR     45  42  89 E3        30.27S
6HR MIN TEMP:  44; 6HR MAX TEMP:  51;

OGALLALA       CLOUDY    47  44  87 CALM      30.24S
$$

NEZ005>010-023>029-035>040-094-301300-
NORTH CENTRAL NEBRASKA

CITY           SKY/WX    TMP DP  RH WIND       PRES   REMARKS
VALENTINE      CLEAR     43  40  89 E3        30.25S
6HR MIN TEMP:  43; 6HR MAX TEMP:  53;

AINSWORTH      CLOUDY    46  44  91 S8        30.26S
BROKEN BOW     CLEAR     35  34  96 CALM      30.28S
6HR MIN TEMP:  35; 6HR MAX TEMP:  40;

O`NEILL        CLOUDY    44  42  94 SE5       30.30S
ORD            FOG       36  34  92 CALM      30.29R VSB 1/2
6HR MIN TEMP:  35; 6HR MAX TEMP:  43; 6HR PCP: TRACE;

THEDFORD       CLEAR     41  40  97 CALM      30.27S
$$

NEZ041-046>049-061>064-073>077-083>087-301300-
SOUTH CENTRAL NEBRASKA

CITY           SKY/WX    TMP DP  RH WIND       PRES   REMARKS
GRAND ISLAND   CLEAR     42  40  92 CALM      30.31S
6HR MIN TEMP:  39; 6HR MAX TEMP:  50;

AURORA         CLEAR     41  41  99 CALM      30.30S
HASTINGS       CLEAR     41  38  89 CALM      30.31S
6HR MIN TEMP:  41; 6HR MAX TEMP:  53;

HEBRON         CLEAR     41  40  97 CALM      30.30R
HOLDREGE       CLOUDY    40  39  95 SE3       30.29S
KEARNEY *      CLOUDY    41  36  81 CALM      30.30S
YORK           CLEAR     39  39 100 CALM      30.30S
$$

NEZ011>018-030>034-042>045-301300-
NORTHEAST NEBRASKA

CITY           SKY/WX    TMP DP  RH WIND       PRES   REMARKS
NORFOLK        FOG       38  37  97 CALM      30.31S VSB 1/4
6HR MIN TEMP:  37; 6HR MAX TEMP:  48;

ALBION         CLOUDY    36  35  95 NW3       30.31S
BLAIR          CLEAR     48  46  91 N7        30.30R
FREMONT        CLEAR     43  42  98 CALM      30.31S
TEKAMAH        CLEAR     43  41  93 N6        30.31R
6HR MIN TEMP:  43; 6HR MAX TEMP:  47;

WAYNE          FOG       36  36  98 CALM      30.32S VSB 1/2
$$

NEZ050>053-065>068-078-088>093-301300-
SOUTHEAST NEBRASKA

CITY           SKY/WX    TMP DP  RH WIND       PRES   REMARKS
LINCOLN        CLEAR     43  42  97 N5        30.31S
6HR MIN TEMP:  42; 6HR MAX TEMP:  49;

OMAHA EPPLEY   CLEAR     47  43  86 N6        30.30R
6HR MIN TEMP:  46; 6HR MAX TEMP:  51;

BEATRICE       CLEAR     42  41  95 CALM      30.29S
FALLS CITY     CLEAR     47  45  93 NW6       30.28R
6HR MIN TEMP:  46; 6HR MAX TEMP:  52;

NEBRASKA CITY  CLEAR     48  45  90 N3        30.29R
PLATTSMOUTH    CLEAR     47  44  89 CALM      30.30R
$$

NEZ044-045-051>053-067-301300-
OMAHA AREA

CITY           SKY/WX    TMP DP  RH WIND       PRES   REMARKS
OMAHA EPPLEY   CLEAR     47  43  86 N6        30.30R
6HR MIN TEMP:  46; 6HR MAX TEMP:  51;

BLAIR          CLEAR     48  46  91 N7        30.30R
FREMONT        CLEAR     43  42  98 CALM      30.31S
MILLARD        CLEAR     47  46  95 CALM      30.30S
PLATTSMOUTH    CLEAR     47  44  89 CALM      30.30R
WAHOO          FAIR      44  43  95 N6        30.30R
$$



USA.gov is the U.S. government's official web portal to all federal, state and local government web resources and services.